| time (UTC) | temp C | wind direction | speed KPH | gust KPH | rain 1hr cm | rain 24hr cm | rain mn cm | humidity % | barometer mb |
| 20260506114107 | 15 | 317 | 0.0 | 0.0 | 0.00 | 0.00 | 0.00 | 98 | 1016.4 |
| 20260506113605 | 15 | 320 | 0.0 | 0.0 | 0.00 | 0.00 | 0.00 | 98 | 1016.6 |
| 20260506113102 | 14 | 320 | 0.0 | 0.0 | 0.00 | 0.00 | 0.00 | 98 | 1016.4 |
| 20260506112558 | 13 | 319 | 0.0 | 0.0 | 0.00 | 0.00 | 0.00 | 98 | 1016.4 |
| 20260506112056 | 13 | 319 | 0.0 | 0.0 | 0.00 | 0.00 | 0.00 | 98 | 1016.5 |
| 20260506111553 | 13 | 322 | 0.0 | 0.0 | 0.00 | 0.00 | 0.00 | 98 | 1016.3 |
| 20260506111050 | 13 | 324 | 0.0 | 0.0 | 0.00 | 0.00 | 0.00 | 98 | 1016.2 |
| 20260506110548 | 13 | 322 | 0.0 | 0.0 | 0.00 | 0.00 | 0.00 | 98 | 1015.9 |
| 20260506110045 | 13 | 322 | 0.0 | 0.0 | 0.00 | 0.00 | 0.00 | 98 | 1015.9 |
| 20260506105541 | 13 | 322 | 0.0 | 0.0 | 0.00 | 0.00 | 0.00 | 98 | 1016.1 |
| 20260506105039 | 13 | 319 | 0.0 | 0.0 | 0.00 | 0.00 | 0.00 | 98 | 1016.2 |
| 20260506104537 | 13 | 319 | 0.0 | 0.0 | 0.00 | 0.00 | 0.00 | 98 | 1016.2 |
| 20260506104034 | 13 | 320 | 0.0 | 0.0 | 0.00 | 0.00 | 0.00 | 98 | 1016.1 |
| 20260506103531 | 13 | 315 | 0.0 | 0.0 | 0.00 | 0.00 | 0.00 | 98 | 1016.1 |
| 20260506103028 | 13 | 315 | 0.0 | 0.0 | 0.00 | 0.00 | 0.00 | 98 | 1016.3 |
| 20260506102526 | 13 | 314 | 0.0 | 0.0 | 0.00 | 0.00 | 0.00 | 98 | 1016.1 |
| 20260506102023 | 13 | 321 | 0.0 | 0.0 | 0.00 | 0.00 | 0.00 | 98 | 1016.4 |
| 20260506101520 | 13 | 321 | 0.0 | 0.0 | 0.00 | 0.00 | 0.00 | 98 | 1016.4 |
| 20260506101017 | 13 | 321 | 0.0 | 0.0 | 0.00 | 0.00 | 0.00 | 98 | 1016.0 |
| 20260506100515 | 13 | 321 | 0.0 | 0.0 | 0.00 | 0.00 | 0.00 | 97 | 1016.1 |
| 20260506100013 | 13 | 321 | 0.0 | 0.0 | 0.00 | 0.00 | 0.00 | 97 | 1015.9 |
| 20260506095512 | 13 | 321 | 0.0 | 0.0 | 0.00 | 0.00 | 0.00 | 97 | 1016.1 |
| 20260506095007 | 13 | 321 | 0.0 | 0.0 | 0.00 | 0.00 | 0.00 | 97 | 1016.3 |
| 20260506094505 | 13 | 322 | 0.0 | 0.0 | 0.00 | 0.00 | 0.00 | 97 | 1015.9 |
| 20260506094003 | 13 | 321 | 0.0 | 0.0 | 0.00 | 0.00 | 0.00 | 97 | 1016.0 |
| 20260506093501 | 13 | 321 | 0.0 | 0.0 | 0.00 | 0.00 | 0.00 | 97 | 1016.0 |
| 20260506092958 | 13 | 320 | 0.0 | 0.0 | 0.00 | 0.00 | 0.00 | 97 | 1016.0 |
| 20260506092456 | 13 | 320 | 0.0 | 0.0 | 0.00 | 0.00 | 0.00 | 97 | 1016.1 |
| 20260506091952 | 13 | 320 | 0.0 | 0.0 | 0.00 | 0.00 | 0.00 | 97 | 1016.0 |
| 20260506091451 | 13 | 320 | 0.0 | 0.0 | 0.00 | 0.00 | 0.00 | 97 | 1016.1 |
| 20260506090948 | 13 | 320 | 0.0 | 0.0 | 0.00 | 0.00 | 0.00 | 97 | 1016.0 |
| 20260506090445 | 13 | 320 | 0.0 | 0.0 | 0.00 | 0.00 | 0.00 | 97 | 1016.3 |
| 20260506085941 | 13 | 320 | 0.0 | 0.0 | 0.00 | 0.00 | 0.00 | 97 | 1016.3 |
| 20260506085439 | 13 | 320 | 0.0 | 0.0 | 0.00 | 0.00 | 0.00 | 97 | 1016.1 |
| 20260506084935 | 13 | 320 | 0.0 | 0.0 | 0.00 | 0.00 | 0.00 | 97 | 1016.0 |
| 20260506084432 | 13 | 320 | 0.0 | 0.0 | 0.00 | 0.00 | 0.00 | 97 | 1016.0 |
| 20260506083928 | 13 | 320 | 0.0 | 0.0 | 0.00 | 0.00 | 0.00 | 97 | 1016.1 |
| 20260506083425 | 13 | 320 | 0.0 | 0.0 | 0.00 | 0.00 | 0.00 | 97 | 1016.5 |
| 20260506082922 | 13 | 320 | 0.0 | 0.0 | 0.00 | 0.00 | 0.00 | 97 | 1016.7 |
| 20260506082420 | 13 | 320 | 0.0 | 0.0 | 0.00 | 0.00 | 0.00 | 97 | 1016.7 |
| 20260506081915 | 13 | 320 | 0.0 | 0.0 | 0.00 | 0.00 | 0.00 | 97 | 1016.6 |
| 20260506081414 | 13 | 320 | 0.0 | 0.0 | 0.00 | 0.00 | 0.00 | 97 | 1016.5 |
| 20260506080912 | 13 | 320 | 0.0 | 0.0 | 0.00 | 0.00 | 0.00 | 96 | 1016.5 |
| 20260506080407 | 13 | 320 | 0.0 | 0.0 | 0.00 | 0.00 | 0.00 | 97 | 1016.3 |
| 20260506073351 | 13 | 320 | 0.0 | 0.0 | 0.00 | 0.00 | 0.00 | 96 | 1016.2 |
| 20260506072848 | 13 | 320 | 0.0 | 0.0 | 0.00 | 0.00 | 0.00 | 96 | 1016.1 |
| 20260506072346 | 13 | 320 | 0.0 | 0.0 | 0.00 | 0.00 | 0.00 | 96 | 1016.0 |
| 20260506071843 | 13 | 317 | 0.0 | 0.0 | 0.00 | 0.00 | 0.00 | 96 | 1015.9 |
| 20260506071341 | 13 | 317 | 0.0 | 0.0 | 0.00 | 0.00 | 0.00 | 96 | 1015.8 |
| 20260506070838 | 13 | 316 | 0.0 | 0.0 | 0.00 | 0.00 | 0.00 | 96 | 1016.0 |
| 20260506070335 | 13 | 317 | 0.0 | 0.0 | 0.00 | 0.00 | 0.00 | 96 | 1016.2 |
| 20260506062312 | 14 | 324 | 0.0 | 0.0 | 0.00 | 0.00 | 0.00 | 96 | 1016.7 |
| 20260506061808 | 13 | 324 | 0.0 | 0.0 | 0.00 | 0.00 | 0.00 | 96 | 1016.6 |
| 20260506061305 | 13 | 323 | 0.0 | 0.0 | 0.00 | 0.00 | 0.00 | 96 | 1016.6 |
| 20260506060803 | 13 | 323 | 0.0 | 0.0 | 0.00 | 0.00 | 0.00 | 96 | 1016.4 |
| 20260506060301 | 13 | 323 | 0.0 | 0.0 | 0.00 | 0.00 | 0.00 | 96 | 1016.5 |
| 20260506051232 | 14 | 322 | 0.0 | 0.0 | 0.00 | 0.00 | 0.00 | 94 | 1017.0 |
| 20260506050730 | 14 | 323 | 0.0 | 0.0 | 0.00 | 0.00 | 0.00 | 94 | 1017.1 |
| 20260506050227 | 14 | 322 | 0.0 | 0.0 | 0.00 | 0.00 | 0.00 | 94 | 1017.1 |
| 20260506044718 | 14 | 319 | 0.0 | 0.0 | 0.00 | 0.00 | 0.00 | 93 | 1017.1 |
| 20260506044215 | 15 | 318 | 0.0 | 0.0 | 0.00 | 0.00 | 0.00 | 93 | 1017.0 |
| 20260506043713 | 15 | 321 | 0.0 | 0.0 | 0.00 | 0.00 | 0.00 | 93 | 1017.1 |
| 20260506043210 | 15 | 321 | 0.0 | 0.0 | 0.00 | 0.00 | 0.00 | 93 | 1017.6 |
| 20260506042709 | 15 | 321 | 0.0 | 0.0 | 0.00 | 0.00 | 0.00 | 93 | 1017.5 |
| 20260506042207 | 15 | 321 | 0.0 | 0.0 | 0.00 | 0.00 | 0.00 | 92 | 1017.2 |
| 20260506041705 | 15 | 321 | 0.0 | 0.0 | 0.00 | 0.00 | 0.00 | 92 | 1017.3 |
| 20260506041202 | 15 | 321 | 0.0 | 0.0 | 0.00 | 0.00 | 0.00 | 92 | 1017.6 |
| 20260506040659 | 15 | 321 | 0.0 | 0.0 | 0.00 | 0.00 | 0.00 | 92 | 1017.6 |
| 20260506040156 | 15 | 319 | 0.0 | 0.0 | 0.00 | 0.00 | 0.00 | 92 | 1017.3 |
| 20260506035653 | 15 | 319 | 0.0 | 0.0 | 0.00 | 0.00 | 0.00 | 92 | 1017.4 |
| 20260506035150 | 15 | 319 | 0.0 | 0.0 | 0.00 | 0.00 | 0.00 | 91 | 1017.4 |
| 20260506034646 | 15 | 321 | 0.0 | 0.0 | 0.00 | 0.00 | 0.00 | 91 | 1017.4 |
| 20260506034144 | 15 | 321 | 0.0 | 0.0 | 0.00 | 0.00 | 0.00 | 91 | 1017.2 |
| 20260506033641 | 15 | 321 | 0.0 | 0.0 | 0.00 | 0.00 | 0.00 | 91 | 1017.4 |
| 20260506033138 | 15 | 321 | 0.0 | 0.0 | 0.00 | 0.00 | 0.00 | 90 | 1017.1 |
| 20260506032635 | 15 | 320 | 0.0 | 0.0 | 0.00 | 0.00 | 0.00 | 90 | 1017.1 |
| 20260506032132 | 16 | 320 | 0.0 | 0.0 | 0.00 | 0.00 | 0.00 | 90 | 1017.0 |
| 20260506031629 | 16 | 320 | 0.0 | 0.0 | 0.00 | 0.00 | 0.00 | 89 | 1017.3 |
| 20260506031125 | 16 | 320 | 0.0 | 0.0 | 0.00 | 0.00 | 0.00 | 89 | 1016.9 |
| 20260506030624 | 16 | 320 | 0.0 | 0.0 | 0.00 | 0.00 | 0.00 | 89 | 1017.0 |
| 20260506030121 | 16 | 320 | 0.0 | 0.0 | 0.00 | 0.00 | 0.00 | 89 | 1017.2 |
| 20260506025618 | 16 | 317 | 0.0 | 0.0 | 0.00 | 0.00 | 0.00 | 88 | 1017.4 |
| 20260506025114 | 16 | 315 | 0.0 | 0.0 | 0.00 | 0.00 | 0.00 | 88 | 1017.1 |
| 20260506024612 | 16 | 318 | 0.0 | 0.0 | 0.00 | 0.00 | 0.00 | 87 | 1017.2 |
| 20260506024107 | 16 | 323 | 0.0 | 0.0 | 0.00 | 0.00 | 0.00 | 87 | 1017.3 |
| 20260506023604 | 16 | 325 | 0.0 | 0.0 | 0.00 | 0.00 | 0.00 | 86 | 1017.2 |
| 20260506023101 | 17 | 318 | 0.0 | 0.0 | 0.00 | 0.00 | 0.00 | 86 | 1017.4 |
| 20260506022558 | 17 | 318 | 0.0 | 0.0 | 0.00 | 0.00 | 0.00 | 85 | 1017.3 |
| 20260506022056 | 17 | 318 | 0.0 | 0.0 | 0.00 | 0.00 | 0.00 | 85 | 1017.3 |
| 20260506021553 | 17 | 323 | 0.0 | 0.0 | 0.00 | 0.00 | 0.00 | 84 | 1017.4 |
| 20260506021050 | 17 | 323 | 0.0 | 0.0 | 0.00 | 0.00 | 0.00 | 84 | 1017.4 |
| 20260506020548 | 17 | 323 | 0.0 | 0.0 | 0.00 | 0.00 | 0.00 | 83 | 1017.2 |
| 20260506020045 | 17 | 323 | 0.0 | 0.0 | 0.00 | 0.00 | 0.00 | 83 | 1017.3 |
| 20260506015542 | 17 | 318 | 0.0 | 0.0 | 0.00 | 0.00 | 0.00 | 82 | 1017.2 |
| 20260506015039 | 18 | 319 | 0.0 | 0.0 | 0.00 | 0.00 | 0.00 | 81 | 1017.2 |
| 20260506014537 | 18 | 325 | 0.0 | 0.0 | 0.00 | 0.00 | 0.00 | 81 | 1017.0 |
| 20260506014032 | 18 | 326 | 0.0 | 0.0 | 0.00 | 0.00 | 0.00 | 81 | 1017.1 |
| 20260506013531 | 18 | 323 | 0.0 | 0.0 | 0.00 | 0.00 | 0.00 | 80 | 1017.1 |
| 20260506013026 | 18 | 326 | 0.0 | 0.0 | 0.00 | 0.00 | 0.00 | 81 | 1017.0 |
| 20260506012523 | 18 | 321 | 0.0 | 0.0 | 0.00 | 0.00 | 0.00 | 81 | 1016.9 |
| 20260506012020 | 18 | 321 | 0.0 | 0.0 | 0.00 | 0.00 | 0.00 | 80 | 1016.9 |
| 20260506011517 | 18 | 326 | 0.0 | 0.0 | 0.00 | 0.00 | 0.00 | 80 | 1016.8 |
| 20260506011013 | 18 | 325 | 0.0 | 0.0 | 0.00 | 0.00 | 0.00 | 79 | 1016.8 |
| 20260506010508 | 18 | 325 | 0.0 | 0.0 | 0.00 | 0.00 | 0.00 | 79 | 1016.9 |
| 20260506010004 | 19 | 329 | 1.6 | 1.6 | 0.00 | 0.00 | 0.00 | 78 | 1017.0 |
| 20260506005501 | 19 | 323 | 0.0 | 0.0 | 0.00 | 0.00 | 0.00 | 78 | 1016.8 |
| 20260506004956 | 19 | 323 | 0.0 | 0.0 | 0.00 | 0.00 | 0.00 | 77 | 1017.0 |
| 20260506004455 | 19 | 310 | 0.0 | 0.0 | 0.00 | 0.00 | 0.00 | 77 | 1016.6 |
| 20260506003950 | 20 | 320 | 0.0 | 0.0 | 0.00 | 0.00 | 0.00 | 76 | 1016.8 |
| 20260506003447 | 20 | 335 | 1.6 | 3.2 | 0.00 | 0.00 | 0.00 | 75 | 1016.6 |
| 20260506002943 | 20 | 320 | 1.6 | 3.2 | 0.00 | 0.00 | 0.00 | 74 | 1016.6 |
| 20260506002440 | 20 | 323 | 0.0 | 1.6 | 0.00 | 0.00 | 0.00 | 74 | 1016.6 |
| 20260506001935 | 20 | 341 | 4.8 | 4.8 | 0.00 | 0.00 | 0.00 | 73 | 1016.7 |
| 20260506001432 | 20 | 334 | 1.6 | 3.2 | 0.00 | 0.00 | 0.00 | 73 | 1016.7 |
| 20260506000929 | 21 | 351 | 1.6 | 1.6 | 0.00 | 0.00 | 0.00 | 73 | 1016.9 |
| 20260506000427 | 21 | 342 | 4.8 | 4.8 | 0.00 | 0.00 | 0.00 | 72 | 1016.7 |
| 20260505235923 | 21 | 13 | 3.2 | 4.8 | 0.00 | 0.00 | 0.00 | 72 | 1016.6 |
| 20260505235422 | 21 | 329 | 1.6 | 1.6 | 0.00 | 0.00 | 0.00 | 71 | 1016.6 |
| 20260505234918 | 21 | 326 | 3.2 | 3.2 | 0.00 | 0.00 | 0.00 | 70 | 1016.7 |
| 20260505234416 | 21 | 323 | 1.6 | 3.2 | 0.00 | 0.00 | 0.00 | 69 | 1016.9 |
| 20260505233912 | 22 | 0 | 4.8 | 4.8 | 0.00 | 0.00 | 0.00 | 68 | 1016.7 |
| 20260505233411 | 22 | 327 | 1.6 | 3.2 | 0.00 | 0.00 | 0.00 | 68 | 1016.6 |
| 20260505232908 | 22 | 311 | 1.6 | 1.6 | 0.00 | 0.00 | 0.00 | 68 | 1016.3 |
| 20260505232405 | 22 | 333 | 3.2 | 3.2 | 0.00 | 0.00 | 0.00 | 67 | 1016.4 |
| 20260505231902 | 22 | 355 | 1.6 | 4.8 | 0.00 | 0.00 | 0.00 | 67 | 1016.3 |
| 20260505231359 | 22 | 343 | 4.8 | 4.8 | 0.00 | 0.00 | 0.00 | 67 | 1016.2 |
| 20260505230857 | 22 | 326 | 1.6 | 3.2 | 0.00 | 0.00 | 0.00 | 66 | 1016.4 |
| 20260505230355 | 22 | 322 | 4.8 | 4.8 | 0.00 | 0.00 | 0.00 | 65 | 1016.2 |
| 20260505225851 | 23 | 31 | 4.8 | 4.8 | 0.00 | 0.00 | 0.00 | 64 | 1016.2 |
| 20260505225348 | 23 | 322 | 1.6 | 3.2 | 0.00 | 0.00 | 0.00 | 63 | 1016.3 |
| 20260505224843 | 23 | 15 | 6.4 | 8.0 | 0.00 | 0.00 | 0.00 | 62 | 1016.4 |
| 20260505224341 | 24 | 321 | 1.6 | 3.2 | 0.00 | 0.00 | 0.00 | 62 | 1016.3 |
| 20260505223838 | 24 | 336 | 1.6 | 3.2 | 0.00 | 0.00 | 0.00 | 62 | 1016.4 |
| 20260505223335 | 23 | 312 | 4.8 | 8.0 | 0.00 | 0.00 | 0.00 | 61 | 1016.2 |
| 20260505222831 | 24 | 21 | 1.6 | 3.2 | 0.00 | 0.00 | 0.00 | 59 | 1016.2 |
| 20260505222327 | 25 | 22 | 6.4 | 9.7 | 0.00 | 0.00 | 0.00 | 59 | 1016.4 |
| 20260505221825 | 25 | 6 | 4.8 | 4.8 | 0.00 | 0.00 | 0.00 | 59 | 1016.3 |
| 20260505221321 | 24 | 25 | 4.8 | 9.7 | 0.00 | 0.00 | 0.00 | 60 | 1016.3 |
| 20260505220818 | 25 | 18 | 8.0 | 16.1 | 0.00 | 0.00 | 0.00 | 58 | 1016.3 |
| 20260505220315 | 25 | 322 | 4.8 | 9.7 | 0.00 | 0.00 | 0.00 | 58 | 1016.5 |
| 20260505215813 | 25 | 299 | 3.2 | 4.8 | 0.00 | 0.00 | 0.00 | 58 | 1016.4 |
| 20260505215311 | 25 | 359 | 1.6 | 3.2 | 0.00 | 0.00 | 0.00 | 58 | 1016.4 |
| 20260505214809 | 25 | 337 | 4.8 | 8.0 | 0.00 | 0.00 | 0.00 | 57 | 1016.4 |
| 20260505214306 | 25 | 38 | 3.2 | 3.2 | 0.00 | 0.00 | 0.00 | 57 | 1016.5 |
| 20260505213803 | 25 | 343 | 8.0 | 9.7 | 0.00 | 0.00 | 0.00 | 55 | 1016.6 |
| 20260505213301 | 25 | 339 | 4.8 | 8.0 | 0.00 | 0.00 | 0.00 | 53 | 1016.5 |
| 20260505212756 | 25 | 345 | 1.6 | 3.2 | 0.00 | 0.00 | 0.00 | 55 | 1016.6 |
| 20260505212254 | 26 | 339 | 1.6 | 1.6 | 0.00 | 0.00 | 0.00 | 52 | 1016.6 |
| 20260505211750 | 26 | 338 | 1.6 | 3.2 | 0.00 | 0.00 | 0.00 | 51 | 1016.3 |
| 20260505211248 | 26 | 306 | 1.6 | 1.6 | 0.00 | 0.00 | 0.00 | 51 | 1016.5 |
| 20260505210744 | 26 | 335 | 3.2 | 3.2 | 0.00 | 0.00 | 0.00 | 50 | 1016.7 |
| 20260505210241 | 26 | 7 | 3.2 | 4.8 | 0.00 | 0.00 | 0.00 | 51 | 1016.7 |
| 20260505205738 | 26 | 308 | 1.6 | 1.6 | 0.00 | 0.00 | 0.00 | 53 | 1016.4 |
| 20260505205236 | 26 | 14 | 4.8 | 4.8 | 0.00 | 0.00 | 0.00 | 53 | 1016.5 |
| 20260505204732 | 26 | 317 | 0.0 | 1.6 | 0.00 | 0.00 | 0.00 | 53 | 1016.4 |
| 20260505204230 | 26 | 353 | 4.8 | 4.8 | 0.00 | 0.00 | 0.00 | 54 | 1016.4 |
| 20260505203727 | 26 | 222 | 3.2 | 3.2 | 0.00 | 0.00 | 0.00 | 54 | 1016.5 |
| 20260505203224 | 26 | 330 | 6.4 | 9.7 | 0.00 | 0.00 | 0.00 | 54 | 1016.4 |
| 20260505202720 | 27 | 339 | 6.4 | 9.7 | 0.00 | 0.00 | 0.00 | 52 | 1016.4 |
| 20260505202216 | 27 | 27 | 8.0 | 9.7 | 0.00 | 0.00 | 0.00 | 53 | 1016.5 |
| 20260505201713 | 26 | 321 | 1.6 | 1.6 | 0.00 | 0.00 | 0.00 | 55 | 1016.6 |
| 20260505201211 | 26 | 333 | 6.4 | 8.0 | 0.00 | 0.00 | 0.00 | 52 | 1016.6 |
| 20260505200709 | 26 | 50 | 8.0 | 11.3 | 0.00 | 0.00 | 0.00 | 55 | 1016.5 |
| 20260505200205 | 27 | 40 | 8.0 | 12.9 | 0.00 | 0.00 | 0.00 | 54 | 1016.6 |
| 20260505195701 | 27 | 279 | 4.8 | 4.8 | 0.00 | 0.00 | 0.00 | 49 | 1016.7 |
| 20260505195158 | 27 | 44 | 8.0 | 11.3 | 0.00 | 0.00 | 0.00 | 51 | 1016.5 |
| 20260505194656 | 27 | 347 | 8.0 | 11.3 | 0.00 | 0.00 | 0.00 | 50 | 1016.8 |
| 20260505194152 | 27 | 11 | 1.6 | 3.2 | 0.00 | 0.00 | 0.00 | 52 | 1016.8 |
| 20260505193648 | 27 | 342 | 3.2 | 8.0 | 0.00 | 0.00 | 0.00 | 49 | 1016.9 |
| 20260505193145 | 27 | 329 | 1.6 | 1.6 | 0.00 | 0.00 | 0.00 | 53 | 1017.1 |
| 20260505192644 | 27 | 358 | 6.4 | 8.0 | 0.00 | 0.00 | 0.00 | 50 | 1017.2 |
| 20260505192141 | 27 | 315 | 0.0 | 1.6 | 0.00 | 0.00 | 0.00 | 50 | 1017.4 |
| 20260505191639 | 27 | 5 | 8.0 | 11.3 | 0.00 | 0.00 | 0.00 | 49 | 1017.4 |
| 20260505191137 | 27 | 37 | 6.4 | 9.7 | 0.00 | 0.00 | 0.00 | 50 | 1017.5 |
| 20260505190633 | 27 | 23 | 9.7 | 14.5 | 0.00 | 0.00 | 0.00 | 51 | 1017.6 |
| 20260505190127 | 27 | 316 | 1.6 | 1.6 | 0.00 | 0.00 | 0.00 | 51 | 1017.7 |
| 20260505185625 | 28 | 325 | 0.0 | 1.6 | 0.00 | 0.00 | 0.00 | 53 | 1017.8 |
| 20260505185121 | 27 | 333 | 4.8 | 8.0 | 0.00 | 0.00 | 0.00 | 48 | 1017.5 |
| 20260505184618 | 27 | 359 | 3.2 | 4.8 | 0.00 | 0.00 | 0.00 | 51 | 1017.6 |
| 20260505184114 | 27 | 261 | 4.8 | 8.0 | 0.00 | 0.00 | 0.00 | 50 | 1017.7 |
| 20260505183611 | 27 | 351 | 1.6 | 1.6 | 0.00 | 0.00 | 0.00 | 49 | 1017.6 |
| 20260505183109 | 27 | 321 | 1.6 | 1.6 | 0.00 | 0.00 | 0.00 | 52 | 1017.5 |
| 20260505182605 | 27 | 336 | 1.6 | 1.6 | 0.00 | 0.00 | 0.00 | 50 | 1017.5 |
| 20260505182102 | 27 | 322 | 4.8 | 8.0 | 0.00 | 0.00 | 0.00 | 51 | 1017.5 |
| 20260505181559 | 27 | 2 | 6.4 | 12.9 | 0.00 | 0.00 | 0.00 | 50 | 1017.3 |
| 20260505181056 | 27 | 273 | 1.6 | 3.2 | 0.00 | 0.00 | 0.00 | 50 | 1017.4 |
| 20260505180551 | 27 | 284 | 3.2 | 3.2 | 0.00 | 0.00 | 0.00 | 51 | 1017.4 |
| 20260505180050 | 27 | 316 | 1.6 | 3.2 | 0.00 | 0.00 | 0.00 | 53 | 1017.8 |
| 20260505175550 | 27 | 357 | 8.0 | 11.3 | 0.00 | 0.00 | 0.00 | 52 | 1017.4 |
| 20260505175047 | 27 | 325 | 1.6 | 1.6 | 0.00 | 0.00 | 0.00 | 54 | 1017.4 |
| 20260505174544 | 27 | 331 | 6.4 | 11.3 | 0.00 | 0.00 | 0.00 | 52 | 1017.7 |
| 20260505174040 | 26 | 331 | 1.6 | 1.6 | 0.00 | 0.00 | 0.00 | 52 | 1017.6 |
| 20260505173537 | 27 | 326 | 6.4 | 9.7 | 0.00 | 0.00 | 0.00 | 52 | 1017.7 |
| 20260505173033 | 27 | 357 | 3.2 | 3.2 | 0.00 | 0.00 | 0.00 | 53 | 1017.5 |
| 20260505172531 | 27 | 5 | 4.8 | 9.7 | 0.00 | 0.00 | 0.00 | 55 | 1017.5 |
| 20260505172027 | 27 | 311 | 0.0 | 1.6 | 0.00 | 0.00 | 0.00 | 54 | 1017.9 |
| 20260505171522 | 26 | 315 | 1.6 | 3.2 | 0.00 | 0.00 | 0.00 | 55 | 1018.1 |
| 20260505171020 | 26 | 4 | 1.6 | 3.2 | 0.00 | 0.00 | 0.00 | 54 | 1018.0 |
| 20260505170517 | 26 | 33 | 4.8 | 8.0 | 0.00 | 0.00 | 0.00 | 56 | 1018.0 |
| 20260505170013 | 27 | 355 | 1.6 | 3.2 | 0.00 | 0.00 | 0.00 | 53 | 1018.0 |
| 20260505165508 | 27 | 325 | 3.2 | 3.2 | 0.00 | 0.00 | 0.00 | 55 | 1018.0 |
| 20260505165004 | 26 | 315 | 0.0 | 1.6 | 0.00 | 0.00 | 0.00 | 58 | 1018.1 |
| 20260505164500 | 26 | 353 | 4.8 | 9.7 | 0.00 | 0.00 | 0.00 | 57 | 1018.4 |
| 20260505163958 | 26 | 357 | 4.8 | 9.7 | 0.00 | 0.00 | 0.00 | 58 | 1018.5 |
| 20260505163457 | 26 | 343 | 4.8 | 8.0 | 0.00 | 0.00 | 0.00 | 58 | 1018.6 |
| 20260505162956 | 26 | 309 | 4.8 | 4.8 | 0.00 | 0.00 | 0.00 | 57 | 1018.7 |
| 20260505162451 | 26 | 331 | 4.8 | 4.8 | 0.00 | 0.00 | 0.00 | 55 | 1018.6 |
| 20260505161948 | 26 | 320 | 1.6 | 3.2 | 0.00 | 0.00 | 0.00 | 58 | 1018.6 |
| 20260505161444 | 26 | 321 | 0.0 | 0.0 | 0.00 | 0.00 | 0.00 | 60 | 1018.6 |
| 20260505160942 | 26 | 17 | 3.2 | 4.8 | 0.00 | 0.00 | 0.00 | 59 | 1018.9 |
| 20260505160440 | 26 | 40 | 4.8 | 8.0 | 0.00 | 0.00 | 0.00 | 58 | 1018.9 |
| 20260505152910 | 25 | 339 | 0.0 | 1.6 | 0.00 | 0.00 | 0.00 | 63 | 1018.9 |
| 20260505152407 | 25 | 299 | 1.6 | 1.6 | 0.00 | 0.00 | 0.00 | 60 | 1018.9 |
| 20260505151902 | 25 | 337 | 4.8 | 4.8 | 0.00 | 0.00 | 0.00 | 61 | 1018.7 |
| 20260505151359 | 25 | 302 | 1.6 | 3.2 | 0.00 | 0.00 | 0.00 | 61 | 1018.8 |
| 20260505150855 | 24 | 321 | 0.0 | 1.6 | 0.00 | 0.00 | 0.00 | 62 | 1018.9 |
| 20260505150352 | 24 | 301 | 6.4 | 12.9 | 0.00 | 0.00 | 0.00 | 61 | 1018.8 |
| 20260505140317 | 22 | 319 | 1.6 | 3.2 | 0.00 | 0.00 | 0.00 | 70 | 1018.7 |
| 20260505130240 | 18 | 311 | 0.0 | 0.0 | 0.00 | 0.00 | 0.00 | 95 | 1018.6 |
| 20260505124731 | 15 | 313 | 0.0 | 0.0 | 0.00 | 0.00 | 0.00 | 98 | 1018.5 |
| 20260505124228 | 15 | 313 | 0.0 | 0.0 | 0.00 | 0.00 | 0.00 | 98 | 1018.6 |
| 20260505123723 | 14 | 317 | 0.0 | 0.0 | 0.00 | 0.00 | 0.00 | 98 | 1018.6 |
| 20260505123220 | 13 | 318 | 0.0 | 0.0 | 0.00 | 0.00 | 0.00 | 98 | 1018.6 |
| 20260505122717 | 13 | 318 | 0.0 | 0.0 | 0.00 | 0.00 | 0.00 | 98 | 1018.6 |
| 20260505122214 | 12 | 318 | 0.0 | 0.0 | 0.00 | 0.00 | 0.00 | 98 | 1018.5 |
| 20260505121710 | 12 | 318 | 0.0 | 0.0 | 0.00 | 0.00 | 0.00 | 98 | 1018.6 |
| 20260505121207 | 11 | 318 | 0.0 | 0.0 | 0.00 | 0.00 | 0.00 | 98 | 1018.9 |
| 20260505120704 | 11 | 318 | 0.0 | 0.0 | 0.00 | 0.00 | 0.00 | 98 | 1018.5 |
| 20260505120200 | 11 | 318 | 0.0 | 0.0 | 0.00 | 0.00 | 0.00 | 98 | 1018.8 |
| 20260505115653 | 11 | 319 | 0.0 | 0.0 | 0.00 | 0.00 | 0.00 | 98 | 1018.5 |
| 20260505115151 | 11 | 319 | 0.0 | 0.0 | 0.00 | 0.00 | 0.00 | 98 | 1018.4 |
| 20260505114648 | 11 | 319 | 0.0 | 0.0 | 0.00 | 0.00 | 0.00 | 98 | 1018.4 |